sat.trackr.live / text

‹ back to catalog

STARLINK-34177

NORAD 64170 · 2025-113A

PAYLOAD ACTIVE UNKNOWN

§ Identity

Operator
Country
US
Launch date
2025-05-28
Launch site
AFETR
Launch vehicle
Mass (kg)
RCS (m²)

Purposes: comms

External: N2YO · Heavens-Above · Gunter

§ Orbital elements

Epoch: 2026-09-20T05:27:29.823264Z

Period
94.01 min
Inclination
53.1579°
Eccentricity
0.0001235
Mean motion
15.31738676 rev/d
Perigee alt
469.8 km
Apogee alt
471.5 km
Semi-major
6,848.8 km
B*
6.3951e-4
RAAN
265.8335°
Arg perigee
84.6427°
Mean anomaly
275.4716°
Rev number
7,487

§ Raw data

STARLINK-341771 64170U 25113A   26263.22742851  .00019556  00000+0  63951-3 0  99922 64170  53.1579 265.8335 0001235  84.6427 275.4716 15.31738676 74879

JSON: /api/v1/satellites/64170 · /tle

For live sub-satellite position, see the globe view (requires WebGL).

§ Visibility from observer

Set your observer location to see the next 7 days of passes ≥ 10°. The values pass through the URL so the page stays shareable.

No JS? Fill the form by hand. The geolocation button needs JavaScript.